Temp
-7 -8 -7 -8 -8 -8 -8 -8 -7 -6 -7 -7 -7 -8 -8 -8 -8 -8 -7 -7 -7 -7 -7 -8 -8 -8 -8 -7 -7 -8 -7 -7 -7 -7 -7 -7 -8 -8 -7 -7 -7 -7 -7 -7
-7 -8 -8 -7 -8 -8 -8 -7 -8 -8 -7 -7 -7 -8 -8 -8 -8 -9 -9 -8 -8 -7 -8 -8 -8 -8 -8 -8 -8 -8 -7 -7 -7 -7 -8 -8 -8 -8 -8 -8 -8 -8 -8 -8
-7 -8 -8 -7 -7 -8 -8 -8 -8 -8 -8 -8 -8 -8 -8 -8 -8 -8 -8 -9 -8 -8 -8 -8 -8 -8 -8 -8 -8 -8 -8 -8 -8 -8 -8 -8 -8 -8 -8 -8 -8 -8 -8 -8
-8 -7 -7 -7 -7 -8 -8 -8 -8 -8 -8 -8 -8 -8 -8 -8 -8 -9 -8 -9 -8 -8 -8 -8 -8 -8 -8 -8 -8 -8 -8 -8 -8 -8 -8 -8 -9 -9 -8 -8 -8 -9 -9 -9
-7 -7 -7 -7 -7 -8 -8 -8 -7 -8 -8 -8 -8 -8 -9 -9 -8 -8 -9 -9 -8 -9 -8 -8 -8 -8 -8 -8 -8 -8 -8 -8 -8 -8 -9 -9 -9 -8 -8 -9 -9 -9 -9 -9
-8 -7 -7 -7 -7 -7 -8 -7 -7 -7 -8 -8 -8 -8 -8 -8 -9 -9 -9 -9 -9 -9 -8 -8 -8 -8 -8 -8 -8 -8 -9 -8 -8 -8 -8 -9 -9 -9 -8 -9 -8 -8 -9 -8
-9 -8 -7 -7 -7 -8 -8 -8 -8 -8 -7 -9 -9 -9 -9 -8 -9 -9 -9 -9 -9 -9 -9 -9 -8 -9 -8 -8 -9 -9 -9 -9 -9 -8 -9 -9 -10 -9 -8 -8 -8 -9 -8 -8
-10 -9 -8 -8 -8 -8 -8 -9 -9 -9 -8 -8 -8 -10 -10 -9 -9 -9 -9 -9 -9 -9 -9 -9 -9 -9 -9 -9 -9 -9 -9 -9 -9 -9 -9 -9 -9 -9 -9 -9 -8 -8 -8 -8
-9 -9 -9 -9 -9 -10 -10 -9 -9 -9 -9 -9 -8 -8 -10 -10 -9 -9 -9 -9 -9 -9 -10 -9 -9 -9 -9 -9 -9 -9 -9 -8 -9 -10 -9 -9 -9 -10 -9 -9 -8 -8 -8 -8
-9 -9 -9 -9 -9 -9 -10 -9 -9 -9 -10 -10 -9 -9 -9 -9 -10 -10 -10 -9 -10 -9 -10 -10 -10 -9 -9 -9 -9 -7 -8 -8 -10 -10 -9 -9 -9 -10 -10 -9 -9 -8 -8 -8
-10 -10 -10 -10 -9 -10 -9 -9 -9 -9 -9 -10 -9 -10 -9 -10 -9 -10 -10 -10 -10 -10 -10 -10 -10 -9 -9 -9 -9 -9 -8 -9 -10 -9 -9 -9 -9 -10 -10 -9 -9 -9 -9 -8
-10 -10 -9 -10 -10 -10 -9 -9 -9 -9 -9 -9 -10 -10 -6 -10 -10 -10 -10 -11 -10 -10 -10 -10 -10 -10 -9 -9 -9 -10 -9 -9 -10 -9 -9 -9 -9 -9 -9 -9 -9 -9 -9 -9
-10 -11 -10 -10 -10 -10 -10 -10 -9 -9 -8 -9 -10 -8 -9 -10 -10 -9 -10 -10 -10 -10 -10 -10 -10 -10 -10 -10 -10 -10 -10 -9 -10 -10 -9 -9 -9 -9 -9 -9 -9 -9 -10 -10
-10 -11 -11 -10 -10 -10 -10 -9 -9 -9 -9 -10 -9 -9 -10 -10 -10 -10 -10 -10 -10 -9 -9 -9 -9 -9 -9 -10 -9 -9 -9 -10 -10 -9 -10 -10 -10 -10 -10 -10 -10 -10 -10 -10
-10 -10 -10 -9 -9 -9 -9 -10 -9 -10 -10 -10 -9 -10 -10 -11 -10 -11 -10 -10 -10 -9 -9 -9 -9 -9 -10 -9 -9 -9 -7 -9 -9 -10 -10 -10 -10 -10 -10 -10 -10 -10 -10 -11
-10 -10 -10 -10 -10 -10 -9 -10 -10 -10 -10 -10 -11 -11 -11 -10 -11 -11 -10 -10 -10 -9 -9 -9 -9 -9 -9 -9 -9 -8 -9 -9 -9 -10 -10 -10 -10 -11 -11 -10 -10 -10 -11 -11
-11 -10 -11 -11 -11 -10 -10 -10 -9 -8 -10 -11 -11 -11 -10 -10 -10 -10 -10 -10 -10 -9 -9 -9 -9 -10 -10 -10 -10 -10 -10 -10 -9 -10 -10 -11 -10 -11 -11 -11 -11 -11 -11 -11
-11 -11 -11 -11 -11 -10 -10 -10 -9 -10 -10 -10 -10 -10 -10 -10 -10 -10 -11 -10 -11 -11 -10 -10 -10 -10 -10 -10 -10 -11 -10 -10 -10 -11 -10 -11 -11 -11 -12 -12 -12 -11 -11 -11
-11 -11 -10 -11 -11 -11 -10 -10 -10 -10 -10 -10 -10 -11 -11 -11 -10 -10 -10 -11 -11 -11 -10 -10 -11 -10 -10 -10 -10 -10 -10 -10 -11 -11 -12 -12 -12 -12 -12 -12 -12 -12 -12 -12
-11 -11 -11 -10 -11 -11 -11 -10 -10 -10 -10 -10 -10 -10 -10 -10 -11 -11 -11 -11 -11 -11 -10 -10 -10 -10 -10 -10 -11 -11 -11 -11 -11 -11 -12 -12 -12 -12 -12 -12 -12 -12 -13 -13
-11 -12 -11 -11 -11 -11 -11 -11 -11 -11 -11 -11 -11 -11 -11 -11 -11 -11 -11 -11 -11 -11 -11 -11 -11 -11 -11 -11 -11 -11 -12 -12 -12 -12 -12 -12 -12 -12 -12 -12 -12 -13 -13 -13
-12 -11 -11 -11 -11 -11 -11 -11 -11 -11 -12 -12 -12 -11 -11 -11 -11 -12 -12 -12 -12 -12 -12 -12 -12 -11 -11 -12 -12 -12 -12 -12 -12 -12 -13 -13 -13 -13 -13 -13 -13 -13 -13 -13
-11 -11 -11 -11 -11 -11 -11 -12 -12 -12 -12 -12 -12 -12 -12 -12 -11 -11 -12 -12 -12 -12 -12 -12 -12 -12 -12 -12 -12 -12 -12 -12 -13 -13 -13 -13 -13 -14 -13 -14 -14 -14 -14 -14
-12 -12 -11 -11 -11 -12 -12 -12 -12 -13 -12 -12 -12 -12 -12 -12 -12 -12 -12 -12 -12 -12 -13 -13 -13 -13 -13 -13 -13 -13 -13 -13 -13 -13 -13 -14 -14 -14 -14 -14 -14 -14 -15 -14
-12 -12 -12 -12 -12 -12 -12 -12 -12 -12 -12 -12 -12 -13 -12 -12 -12 -13 -13 -13 -13 -13 -13 -13 -13 -13 -13 -14 -14 -14 -14 -15 -15 -15 -15 -15 -15 -15 -15 -15 -15 -15 -15 -16
-12 -12 -12 -13 -12 -12 -13 -13 -13 -13 -13 -13 -13 -13 -13 -13 -14 -14 -14 -14 -14 -14 -14 -14 -14 -14 -14 -14 -14 -15 -15 -15 -15 -16 -16 -16 -16 -16 -16 -16 -16 -16 -16 -16
-13 -13 -13 -13 -13 -13 -13 -13 -13 -13 -13 -13 -14 -14 -14 -14 -14 -14 -14 -14 -15 -15 -15 -15 -15 -15 -15 -15 -15 -15 -15 -15 -16 -16 -16 -16 -16 -16 -16 -17 -16 -17 -17 -17
Height
5853 5856 5857 5859 5862 5864 5867 5870 5870 5873 5871 5872 5872 5871 5871 5873 5872 5872 5873 5872 5872 5869 5866 5865 5862 5860 5858 5858 5858 5859 5859 5860 5860 5860 5859 5860 5861 5861 5863 5863 5863 5862 5862 5863
5847 5850 5851 5853 5857 5860 5861 5862 5864 5866 5866 5870 5869 5866 5866 5867 5866 5865 5865 5864 5866 5866 5863 5862 5860 5858 5857 5856 5855 5857 5857 5856 5857 5857 5857 5857 5858 5859 5859 5860 5860 5860 5861 5862
5839 5846 5847 5848 5853 5855 5857 5857 5857 5858 5860 5862 5862 5862 5861 5860 5859 5859 5858 5859 5861 5863 5860 5858 5858 5857 5857 5856 5855 5854 5853 5854 5853 5853 5853 5855 5856 5855 5856 5856 5857 5857 5858 5859
5830 5838 5838 5845 5848 5850 5849 5849 5849 5851 5854 5856 5857 5857 5857 5856 5854 5854 5855 5855 5857 5858 5856 5855 5854 5855 5854 5854 5852 5851 5850 5850 5850 5851 5852 5852 5851 5850 5850 5851 5852 5852 5852 5853
5824 5831 5835 5837 5840 5843 5843 5845 5843 5845 5848 5851 5853 5851 5849 5849 5850 5850 5850 5852 5853 5854 5854 5851 5850 5851 5851 5851 5850 5849 5847 5846 5846 5847 5847 5846 5846 5846 5847 5846 5846 5846 5846 5847
5817 5821 5823 5828 5832 5836 5837 5836 5833 5835 5837 5841 5844 5844 5844 5842 5844 5845 5846 5847 5849 5849 5850 5848 5846 5846 5847 5846 5846 5845 5843 5840 5842 5844 5843 5843 5843 5843 5842 5841 5842 5841 5841 5841
5811 5812 5816 5819 5824 5826 5828 5828 5826 5830 5830 5831 5835 5838 5838 5838 5838 5838 5838 5840 5843 5845 5845 5843 5842 5840 5840 5839 5839 5839 5837 5834 5835 5835 5835 5834 5835 5837 5836 5836 5835 5834 5834 5833
5804 5806 5809 5813 5817 5819 5819 5818 5820 5824 5824 5824 5826 5827 5829 5829 5828 5829 5829 5831 5833 5837 5837 5838 5836 5835 5833 5831 5831 5830 5828 5817 5821 5830 5829 5830 5829 5828 5830 5830 5830 5829 5827 5826
5798 5799 5800 5803 5807 5810 5810 5810 5813 5813 5813 5814 5817 5817 5817 5821 5820 5820 5820 5823 5825 5827 5829 5831 5830 5829 5826 5825 5823 5821 5817 5799 5812 5822 5823 5821 5822 5820 5823 5823 5823 5822 5821 5819
5790 5793 5793 5796 5799 5800 5802 5802 5802 5802 5801 5805 5810 5812 5812 5809 5809 5810 5813 5816 5816 5817 5819 5820 5820 5819 5818 5814 5811 5803 5807 5806 5811 5814 5815 5816 5816 5813 5813 5814 5815 5813 5813 5813
5783 5784 5785 5784 5785 5787 5790 5792 5791 5790 5791 5788 5784 5788 5789 5797 5799 5798 5802 5805 5807 5808 5810 5810 5810 5811 5808 5805 5800 5798 5790 5797 5804 5806 5809 5810 5810 5809 5808 5807 5806 5806 5805 5805
5773 5772 5772 5773 5773 5774 5775 5776 5777 5778 5776 5777 5768 5757 5746 5784 5782 5789 5793 5789 5794 5796 5798 5800 5800 5800 5799 5798 5794 5791 5789 5792 5794 5797 5799 5800 5801 5801 5801 5801 5799 5799 5798 5796
5762 5763 5761 5761 5759 5763 5763 5761 5760 5767 5766 5767 5760 5741 5753 5770 5777 5780 5781 5782 5784 5786 5789 5793 5793 5792 5788 5788 5790 5787 5785 5782 5784 5786 5787 5789 5790 5792 5793 5793 5793 5791 5790 5788
5753 5755 5754 5753 5752 5755 5754 5753 5756 5758 5760 5760 5755 5755 5759 5763 5764 5767 5771 5774 5775 5775 5779 5781 5783 5781 5780 5779 5778 5771 5764 5763 5769 5774 5777 5779 5781 5782 5783 5783 5783 5783 5781 5780
5746 5747 5745 5744 5743 5744 5741 5744 5744 5745 5751 5753 5751 5754 5756 5757 5758 5759 5761 5763 5763 5766 5769 5770 5770 5767 5767 5766 5763 5758 5746 5746 5752 5761 5764 5767 5769 5771 5772 5772 5772 5772 5772 5771
5736 5736 5736 5735 5733 5737 5736 5736 5738 5742 5746 5746 5746 5749 5750 5751 5752 5753 5753 5753 5754 5754 5758 5759 5758 5758 5756 5755 5752 5748 5745 5739 5743 5748 5752 5756 5757 5759 5760 5760 5760 5761 5761 5760
5731 5732 5732 5732 5731 5732 5732 5733 5736 5738 5737 5740 5741 5742 5742 5742 5743 5743 5745 5745 5743 5745 5746 5747 5746 5746 5743 5741 5741 5740 5739 5739 5738 5739 5742 5745 5745 5748 5748 5748 5749 5751 5751 5750
5725 5728 5730 5731 5730 5731 5730 5730 5730 5730 5733 5736 5737 5737 5737 5736 5736 5736 5735 5736 5737 5737 5737 5737 5737 5736 5736 5737 5733 5730 5731 5729 5728 5729 5731 5731 5734 5736 5736 5737 5739 5740 5740 5740
5719 5721 5722 5724 5725 5726 5726 5726 5726 5726 5727 5729 5729 5729 5729 5729 5729 5730 5731 5730 5730 5731 5731 5730 5729 5730 5730 5728 5726 5725 5725 5725 5724 5724 5724 5723 5726 5727 5728 5729 5729 5729 5729 5729
5712 5714 5715 5717 5719 5721 5722 5722 5721 5722 5724 5724 5725 5726 5726 5725 5725 5725 5725 5724 5724 5724 5723 5723 5722 5720 5720 5719 5717 5717 5718 5718 5717 5717 5716 5716 5715 5715 5716 5717 5718 5719 5718 5718
5705 5707 5710 5711 5712 5714 5714 5715 5717 5717 5719 5720 5720 5721 5721 5720 5719 5718 5717 5717 5717 5716 5715 5714 5713 5713 5712 5712 5710 5708 5709 5710 5708 5707 5707 5706 5706 5705 5705 5705 5705 5705 5704 5703
5701 5703 5704 5705 5707 5708 5710 5711 5712 5712 5713 5713 5714 5713 5713 5712 5712 5711 5711 5711 5710 5709 5708 5707 5707 5706 5704 5703 5701 5700 5699 5699 5699 5700 5699 5697 5696 5695 5694 5693 5693 5691 5690 5688
5692 5695 5698 5701 5702 5703 5703 5703 5704 5705 5706 5705 5703 5703 5704 5705 5706 5706 5705 5703 5702 5701 5700 5699 5698 5697 5696 5695 5693 5691 5690 5689 5688 5687 5686 5686 5684 5682 5681 5679 5678 5676 5676 5673
5689 5690 5693 5695 5696 5696 5696 5697 5697 5698 5698 5699 5700 5700 5700 5700 5700 5699 5698 5697 5695 5693 5692 5690 5688 5686 5685 5684 5683 5682 5681 5679 5677 5676 5674 5672 5671 5669 5668 5666 5664 5662 5661 5659
5684 5687 5689 5691 5692 5693 5695 5695 5696 5697 5696 5696 5695 5694 5694 5693 5692 5691 5690 5689 5687 5685 5682 5681 5679 5677 5676 5674 5672 5671 5669 5668 5666 5665 5663 5662 5660 5658 5655 5654 5652 5650 5648 5647
5681 5683 5686 5688 5689 5690 5692 5692 5692 5692 5692 5691 5689 5689 5687 5686 5685 5682 5681 5679 5678 5676 5674 5672 5669 5667 5665 5664 5662 5660 5658 5656 5654 5652 5650 5648 5646 5644 5643 5641 5639 5637 5634 5632
5677 5679 5681 5682 5684 5685 5685 5686 5687 5685 5685 5685 5685 5683 5681 5679 5677 5676 5674 5673 5671 5668 5666 5664 5663 5661 5658 5655 5653 5650 5648 5646 5643 5640 5638 5635 5632 5630 5628 5627 5625 5623 5621 5620
Wind_Speed
28 26 26 26 25 27 22 14 16 16 30 28 27 29 30 30 24 13 18 28 23 22 16 14 12 12 11 8 8 9 9 8 10 12 11 12 12 11 11 9 7 5 4 4
37 35 32 31 28 24 24 17 15 16 22 28 28 31 34 39 30 21 27 30 21 18 14 10 10 8 11 8 8 8 9 11 11 12 11 12 13 12 12 11 12 12 9 10
41 36 39 38 31 25 22 21 20 29 25 23 21 25 27 31 33 36 31 21 20 18 12 11 10 9 10 11 9 6 9 11 14 14 13 14 15 15 16 16 18 18 18 16
38 36 45 39 37 36 32 29 30 29 29 27 29 29 31 30 33 33 32 28 23 18 14 11 11 12 14 12 10 10 9 10 13 13 13 12 14 18 19 21 17 19 21 23
32 34 36 41 45 43 45 41 42 37 35 33 32 27 31 34 36 34 30 29 24 21 17 15 15 14 14 15 12 14 15 15 15 17 17 17 13 10 10 6 8 12 16 20
33 34 37 34 38 45 45 49 51 48 37 31 27 42 41 38 34 32 30 29 27 24 21 15 20 19 16 18 22 19 20 21 19 20 21 20 15 6 7 8 13 16 18 22
35 36 37 38 35 37 38 47 48 42 40 29 28 32 36 38 40 35 34 32 32 26 21 18 21 23 22 22 22 26 28 28 26 23 24 18 8 8 8 9 10 16 19 20
32 34 40 37 34 34 39 43 43 39 42 44 38 30 37 38 40 38 40 42 42 36 34 25 24 25 25 27 29 29 30 49 32 25 9 16 10 10 9 13 17 18 19 20
34 37 38 37 36 36 35 38 40 43 48 50 46 37 35 42 47 42 43 46 45 45 37 30 27 27 28 30 31 32 35 31 14 10 15 17 16 13 16 16 19 17 17 18
40 43 45 46 47 47 43 43 46 46 53 49 50 53 51 43 49 40 39 47 46 46 41 32 30 30 31 34 40 35 30 23 19 15 20 22 23 22 18 20 20 19 20 22
42 45 48 47 50 49 48 47 54 57 47 55 48 50 44 47 47 42 35 42 46 48 44 38 33 34 35 40 38 34 25 22 21 23 26 26 27 27 27 23 23 21 21 21
40 43 50 41 50 53 51 52 49 49 49 49 61 63 28 35 30 39 52 49 46 44 41 42 43 45 41 42 42 35 33 33 29 31 29 27 28 29 31 30 27 25 24 23
36 26 29 36 42 31 29 34 38 44 47 54 47 11 20 28 30 36 34 31 37 46 49 42 44 40 39 40 44 47 48 41 38 35 34 32 30 31 33 33 30 29 30 28
29 29 24 28 31 31 31 31 34 39 38 23 15 15 19 25 30 33 36 37 36 36 32 34 33 38 39 40 39 54 66 63 47 41 38 36 35 35 36 37 36 35 34 31
25 22 24 23 21 19 25 27 27 27 23 19 14 16 23 27 31 33 38 39 39 39 37 35 38 41 39 40 43 35 23 45 59 44 38 39 39 40 40 39 39 38 35 32
18 21 16 19 11 8 6 2 7 13 18 17 20 23 27 29 28 28 30 30 31 30 29 31 33 33 34 33 29 17 33 34 32 32 38 39 36 39 39 37 37 35 34 34
15 11 9 6 1 3 2 4 7 15 16 19 21 24 25 27 28 27 30 30 28 27 28 30 34 33 34 32 30 25 28 32 36 36 38 39 38 39 39 35 34 34 34 31
15 19 15 11 6 10 12 15 15 15 17 21 22 22 21 21 22 22 21 21 21 21 21 23 26 30 29 27 25 22 22 16 22 27 34 32 32 33 31 29 31 31 32 32
18 14 17 17 11 13 15 15 15 17 18 17 19 21 21 22 22 23 22 19 21 22 22 23 24 25 26 28 27 26 23 21 22 24 24 23 27 27 27 28 30 32 33 33
16 19 22 17 14 15 17 18 18 17 19 20 21 21 21 21 20 21 20 20 22 25 26 27 29 30 30 28 28 28 26 25 27 28 28 30 33 29 28 30 33 35 34 35
18 19 18 17 14 13 13 14 15 15 16 18 18 19 20 20 20 20 19 20 22 24 25 26 29 30 28 29 28 28 25 23 25 27 28 29 29 30 31 32 35 37 38 38
19 19 17 16 14 12 13 13 13 13 13 14 15 16 17 18 19 19 20 21 21 21 21 22 24 26 28 29 30 30 31 30 30 31 33 33 33 33 34 36 38 39 40 40
18 16 15 14 16 16 13 11 12 12 13 14 15 16 15 16 19 21 23 24 25 26 28 28 28 28 28 30 32 33 34 34 35 35 35 36 35 37 37 39 39 41 39 44
16 17 15 17 18 14 10 10 12 12 15 15 16 18 20 21 22 24 26 27 28 29 29 29 29 30 30 30 30 32 34 35 36 37 38 38 37 37 39 42 41 41 41 42
14 15 16 16 14 13 13 15 14 14 17 18 18 20 22 24 25 25 25 25 27 28 29 31 32 33 33 32 31 31 30 29 29 30 31 32 32 33 34 35 36 38 38 39
17 16 16 13 13 14 14 13 14 17 17 19 22 21 23 23 24 25 26 28 28 28 27 26 25 24 25 25 26 27 28 29 30 30 31 32 33 32 32 33 34 36 38 39
17 13 12 12 11 12 14 17 17 21 21 19 18 20 22 23 24 24 24 22 21 24 25 26 26 26 27 28 29 30 31 31 31 32 32 32 33 34 34 34 36 35 34 37
Wind_Direction
212 207 212 207 223 242 242 259 278 243 241 243 254 273 282 279 294 302 270 301 317 324 310 286 294 273 282 281 269 270 269 259 249 242 247 247 239 244 249 256 255 254 160 178
212 204 211 217 217 233 242 226 254 284 240 246 266 280 280 282 292 295 301 314 337 320 311 304 307 302 264 245 253 250 250 247 246 242 242 246 246 246 253 253 258 252 233 219
224 216 218 227 216 219 234 237 226 248 254 249 253 270 280 281 284 291 303 313 324 318 295 312 304 287 279 256 277 259 248 252 248 242 244 252 253 257 264 261 266 266 259 248
227 214 223 228 220 216 226 228 234 237 241 247 265 266 270 274 276 284 291 306 312 307 285 291 299 293 272 265 240 249 252 249 250 248 245 253 261 259 267 257 263 252 255 249
230 223 225 226 226 223 226 236 244 237 242 239 252 255 264 264 271 281 292 298 300 301 293 279 285 290 285 263 245 251 261 259 247 247 247 263 254 237 250 271 218 248 257 261
224 220 224 228 232 231 231 239 241 246 254 261 258 247 256 269 278 282 286 287 290 293 296 295 285 281 277 262 265 262 253 257 259 265 267 267 232 237 262 272 256 259 270 275
239 229 225 228 226 230 234 240 247 252 259 251 268 264 256 259 261 267 271 275 278 283 283 290 282 277 270 272 275 270 263 258 253 259 264 236 186 214 263 296 309 295 283 279
223 234 236 233 234 236 237 239 248 254 261 260 257 243 260 257 252 258 265 269 273 274 278 282 273 270 269 271 271 261 261 252 236 246 275 294 273 267 274 290 288 275 282 277
232 235 241 240 243 244 243 248 251 254 255 257 254 256 223 253 247 248 254 263 267 273 278 282 263 257 263 267 262 259 262 238 240 267 267 272 273 269 272 272 278 275 280 292
238 243 247 254 256 250 247 251 257 257 251 268 253 250 254 228 253 243 247 256 263 269 274 273 274 268 265 260 256 250 245 257 271 275 279 276 274 270 270 273 274 276 285 288
253 253 250 253 257 255 257 258 258 255 263 257 263 233 235 253 251 247 245 254 261 267 270 273 275 277 270 266 268 275 240 240 257 269 276 271 268 270 274 274 277 279 279 285
259 261 257 259 262 256 266 258 270 258 255 268 268 269 229 234 232 239 244 245 252 258 267 271 277 274 270 273 279 271 261 267 268 268 267 271 271 273 273 275 278 279 277 283
255 268 263 250 279 252 257 261 260 252 263 272 274 237 208 225 236 241 257 264 259 260 264 271 268 278 280 279 277 276 281 265 262 263 262 265 266 268 270 276 278 281 281 281
255 265 271 267 258 260 264 272 267 261 271 267 248 240 248 257 263 261 258 260 259 262 266 267 267 274 278 277 286 272 284 258 250 256 258 262 265 267 269 272 275 279 279 280
253 255 255 258 273 271 259 268 275 255 251 227 230 241 252 257 259 258 255 254 255 259 262 267 272 278 280 286 286 277 252 238 241 244 254 260 263 266 266 269 274 274 273 272
261 260 279 270 297 336 258 31 236 231 234 229 236 246 254 256 257 259 262 266 267 270 271 275 275 278 280 281 277 254 260 233 237 247 255 259 262 264 263 266 269 268 268 268
248 259 250 286 255 274 66 249 251 262 262 255 256 261 264 265 268 271 269 273 277 277 275 273 275 278 278 283 287 265 264 267 252 257 258 254 258 256 255 257 262 263 264 264
235 232 262 258 251 245 234 229 227 231 242 248 252 256 262 268 274 280 284 273 266 273 271 269 273 275 276 277 279 278 269 285 254 248 257 247 249 252 255 257 256 259 262 264
249 235 256 255 246 241 238 234 237 244 252 260 269 273 275 276 275 274 276 274 268 273 266 268 269 266 270 274 278 281 284 281 282 282 278 269 263 258 258 259 261 265 268 268
211 227 242 246 242 232 230 229 236 243 249 258 261 259 263 267 268 270 270 270 267 266 271 271 269 272 275 275 277 278 280 280 277 274 274 271 267 264 263 261 265 268 269 267
234 241 241 242 238 232 229 231 235 239 243 247 250 252 254 259 265 270 275 275 273 272 270 268 270 274 275 274 274 276 274 271 272 276 276 272 270 266 263 261 263 266 267 267
229 230 238 244 244 241 241 245 248 250 249 251 254 259 263 269 273 276 277 277 277 276 273 271 270 270 273 274 275 275 276 274 271 269 269 270 271 270 268 265 266 268 271 270
221 230 236 243 244 243 242 250 259 264 264 269 275 280 282 283 283 284 284 286 285 282 280 280 279 276 272 271 273 273 273 274 273 272 270 269 270 267 270 263 268 274 275 274
223 232 237 243 246 251 259 261 263 269 273 276 280 281 281 279 278 280 281 283 285 286 288 288 287 285 282 278 273 269 268 269 270 272 271 272 274 273 271 273 275 273 273 273
216 223 230 235 241 247 250 253 258 261 272 279 281 283 285 284 284 285 286 287 288 288 287 286 287 286 285 282 281 280 278 277 276 275 276 277 277 276 275 274 272 273 271 270
220 222 228 232 238 244 251 261 270 274 276 279 283 287 286 288 291 294 295 294 294 292 290 288 288 291 291 291 289 288 286 284 284 284 284 285 284 282 281 280 278 277 275 273
227 230 235 237 240 255 265 272 278 281 285 286 287 286 289 290 292 292 291 290 289 290 292 293 295 294 292 291 292 295 296 295 294 292 290 286 283 280 279 278 277 274 277 279